Regional Weather Roundup
Issued by NWS Charleston, SC

Current Version | Previous Version | Graphics & Text | Print | Product List | Glossary On
Versions: 1 2 3 4 5 6 7 8 9 10 11 12 13 14 15 16 17 18 19 20 21 22 23 24 25 26 27 28 29 30 31 32 33 34 35 36 37 38 39 40 41 42 43 44 45 46 47 48 49 50
000 ASUS42 KCHS 160325 RWRCHS REGIONAL WEATHER ROUNDUP NATIONAL WEATHER SERVICE CHARLESTON SC 1100 PM EDT MON SEP 15 2014 NOTE: "FAIR" INDICATES FEW OR NO CLOUDS BELOW 12,000 FEET WITH NO SIGNIFICANT WEATHER AND/OR OBSTRUCTIONS TO VISIBILITY. NOT ALL STATIONS ARE QUALITY CONTROLLED BY THE NATIONAL WEATHER SERVICE. USE DATA WITH CAUTION...ESPECIALLY DEWPOINT OBSERVATIONS. SCZ027-030-031-034>040-042>050-160400- ...SOUTH CAROLINA... CITY SKY/WX TMP DP RH WIND PRES REMARKS N CHARLESTON CLOUDY 77 74 90 CALM 30.13F WATERFRONT PRK N/A 81 N/A N/A CALM N/A FORT JOHNSON NOT AVBL MOUNT PLEASANT FAIR 75 75 100 CALM 30.12F FOG JOHNS ISLAND CLEAR 75 75 100 CALM 30.13S FOG PINOPOLIS N/A 77 73 88 CALM 30.08R MONCKS CORNER NOT AVBL SUMMERVILLE CLOUDY 73 73 100 CALM 30.15S FOG BEAUFORT MCAS MOCLDY 76 73 91 W3 30.13S BEAUFORT ARPT FAIR 77 77 100 CALM 30.12F HILTON HEAD IS MOCLDY 75 75 100 CALM 30.13F FOG GEORGETOWN NOT AVBL WALTERBORO RAIN 73 N/A N/A CALM 30.15R ORANGEBURG CLOUDY 74 71 91 SE3 30.15R BARNWELL CLOUDY 75 73 94 CALM 30.15S AIKEN CLOUDY 72 72 100 CALM 30.17F MANNING CLOUDY 73 N/A N/A CALM 30.15R KINGSTREE NOT AVBL COLUMBIA CLOUDY 74 70 87 W3 30.14R SUMTER CLOUDY 73 70 88 CALM 30.13S FLORENCE CLOUDY 73 70 90 CALM 30.13F MYRTLE BEACH CLOUDY 73 68 83 N3 30.13F N MYRTLE BEACH CLOUDY 72 69 90 NE3 30.13S $$ GAZ063-065-086>088-099>101-113>116-118-119-134-136>141-150-160400- ...GEORGIA... CITY SKY/WX TMP DP RH WIND PRES REMARKS SAVANNAH ARPT CLOUDY 76 73 91 CALM 30.13F HUNTER AAF CLOUDY 75 75 100 NW1 30.11F FOG FORT STEWART CLOUDY 75 73 94 CALM 30.12F STATESBORO NOT AVBL SYLVANIA MOCLDY 74 73 98 CALM 30.14F CLAXTON NOT AVBL THOMSON CLOUDY 74 74 100 CALM 30.19F AUGUSTA-BUSH CLOUDY 73 72 96 CALM 30.13F FOG AUGUSTA-DANIEL CLOUDY 75 72 90 CALM 30.16R SWAINSBORO CLOUDY 79 79 100 W6 30.16S VIDALIA RAIN 73 73 100 SW3 30.13F ALMA CLOUDY 74 72 93 CALM 30.14S WAYCROSS CLOUDY 76 76 99 N5 30.13S JESUP N/A 77 75 94 CALM 30.13F BRUNSWICK CLOUDY 77 72 83 CALM 30.14S SAINT SIMONS CLOUDY 75 74 96 NW5 30.13R $$ SCZ027-028-034-036>038-045-046-048>050-GAZ119-141-160400- ...LAKE AND SUPPLEMENTAL COASTAL OBSERVATIONS... STATION/POSITION TIME TEMP WIND PRES WAVE SWELL AIR SEA DIR/SP/G HT/PER HT/PER/DIR (UTC) (F) (DEG/KT/KT) (MB) (FT/S) (FT/S/D) UPR LAKE MARION NOT AVBL WINYAH BAY 0300 75 310/ 3 1020.0S LAKE MURRAY 0200 74 140/ 3/ 5 1020.3R ACE BASIN NERRS 0300 74 CALM 1020.0S FORT PULASKI 0300 78 360/ 2/ 2 N/A SAPELO ISLAND 0300 76 360/ 1 1020.0F $$ ANZ835-935-AMZ111-154-330-350-352-354-374-450-454-472-160400- ...C-MAN AND BUOY OBSERVATIONS... STATION/POSITION TIME TEMP WIND PRES WAVE SWELL AIR SEA DIR/SP/G HT/PER HT/PER/DIR (UTC) (F) (DEG/KT/KT) (MB) (FT/S) (FT/S/D) FOLLY BEACH CMAN 0300 77 CALM / 1 1020.3F BUOY 41004 0300 80 83 200/ 2/ 4 1019.6F 2/ 4 2/ 4 BUOY 41008 0300 83 85 130/ 6/ 8 1020.1F 2/ 6 2/ 70/ 6 5E ST. MARYS GA 0300 84 N/A 2/ 6 FRYING PAN BUOY NOT AVBL BUOY 41025 0300 73 340/ 10/ 12 1020.1S 3/ 8 3/ 40/ 8 CAPE LOOKOUT NC 0300 73 30/ 6/ 7 1020.4S BUOY 41002 0204 80 83 300/ 4/ 10 1020.1S 3/ 6 BUOY 41010 0300 83 85 170/ 4/ 6 1020.7R 2/ 8 2/ 60/ 8 BUOY 41012 NOT AVBL ST AUGUSTINE FL 0300 78 230/ 3/ 4 1021.2R CAPERS NEARSHORE 0200 79 140/ 4/ 6 N/A FRIPP NEARSHORE NOT AVBL $$

USA.gov is the U.S. government's official web portal to all federal, state and local government web resources and services.